Tracking 19720 objects as of 26-Jun-2019
HD Live streaming from Space Station
objects crossing your sky now

FENGYUN 1C DEB

Track FENGYUN 1C DEB now!
10-day predictions


NORAD ID: 30441
Int'l Code: 1999-025AFC
Perigee: 849.3 km
Apogee: 1,128.5 km
Inclination: 99.0 °
Period: 104.7 minutes
Semi major axis: 7359 km
RCS: 0.038 m2 (small)
Launch date: May 10, 1999
Source: People's Republic of China (PRC)
Launch site: Taiyaun Space Center, China (TSC)

Note: This is SATELLITE DEBRIS
aabbcc
Your satellite tracking list
Your tracking list is empty




NASA's NSSDC Master Catalog

Two Line Element Set (TLE):
1 30441U 99025AFC 19175.46163612  .00000057  00000-0  89009-4 0  9991
2 30441  98.9599 343.9078 0189692  37.6131 323.8115 13.74975710623810
Source of the keplerian elements: AFSPC